• In Belarus
  • List of Countries
  • For 7 days
  • Water Temperature
  • Satellite Maps
  • Weather Map
  • Weather Widgets
  • user-avatar
    Login

    Hourly Weather Andora

    Today, 21 July, Friday

    Time Temperature Precipitation Wind Pressure Humidity
    00:00 +11°C° 0 mm 0 mps 625 mmHg 94%
    01:00 +11°C° 0 mm 0 mps 625 mmHg 94%
    02:00 +12°C° 0 mm 1 mps 624 mmHg 94%
    03:00 +12°C° 0 mm 1 mps 624 mmHg 95%
    04:00 +12°C° 0.2 mm 1 mps 624 mmHg 93%
    05:00 +13°C° 0.2 mm 1 mps 624 mmHg 92%
    06:00 +13°C° 0.2 mm 1 mps 625 mmHg 91%
    07:00 +14°C° 0.3 mm 1 mps 625 mmHg 84%
    08:00 +15°C° 0.3 mm 2 mps 625 mmHg 77%
    09:00 +16°C° 0.3 mm 2 mps 626 mmHg 71%
    10:00 +18°C° 0.3 mm 2 mps 626 mmHg 65%
    11:00 +19°C° 0.3 mm 3 mps 626 mmHg 60%
    12:00 +20°C° 0.3 mm 3 mps 627 mmHg 54%
    13:00 +20°C° 0.8 mm 3 mps 627 mmHg 55%
    14:00 +20°C° 0.8 mm 3 mps 626 mmHg 55%
    15:00 +20°C° 0.8 mm 3 mps 626 mmHg 56%
    16:00 +19°C° 0.2 mm 2 mps 626 mmHg 59%
    17:00 +19°C° 0.2 mm 2 mps 626 mmHg 62%
    18:00 +18°C° 0.2 mm 2 mps 625 mmHg 65%
    19:00 +16°C° 0 mm 1 mps 625 mmHg 72%
    20:00 +15°C° 0 mm 1 mps 625 mmHg 79%
    21:00 +13°C° 0 mm 1 mps 625 mmHg 86%
    22:00 +13°C° 0 mm 1 mps 625 mmHg 87%
    23:00 +12°C° 0 mm 1 mps 625 mmHg 88%

    Tomorrow, 22 July, Saturday

    Time Temperature Precipitation Wind Pressure Humidity
    00:00 +12°C° 0 mm 1 mps 625 mmHg 88%
    01:00 +12°C° 0 mm 1 mps 625 mmHg 89%
    02:00 +11°C° 0 mm 1 mps 624 mmHg 89%
    03:00 +11°C° 0 mm 1 mps 624 mmHg 90%
    04:00 +12°C° 0 mm 1 mps 625 mmHg 88%
    05:00 +13°C° 0 mm 1 mps 625 mmHg 87%
    06:00 +13°C° 0 mm 1 mps 626 mmHg 85%
    07:00 +15°C° 0 mm 2 mps 627 mmHg 74%
    08:00 +18°C° 0 mm 2 mps 628 mmHg 63%
    09:00 +20°C° 0 mm 2 mps 628 mmHg 52%
    10:00 +21°C° 0 mm 3 mps 629 mmHg 47%
    11:00 +22°C° 0 mm 4 mps 629 mmHg 42%
    12:00 +23°C° 0 mm 4 mps 629 mmHg 37%
    13:00 +23°C° 0 mm 4 mps 629 mmHg 37%
    14:00 +23°C° 0 mm 4 mps 629 mmHg 38%
    15:00 +23°C° 0 mm 4 mps 629 mmHg 39%
    16:00 +22°C° 0.1 mm 4 mps 629 mmHg 44%
    17:00 +21°C° 0.1 mm 3 mps 628 mmHg 50%
    18:00 +20°C° 0.1 mm 2 mps 628 mmHg 56%
    19:00 +18°C° 0 mm 2 mps 628 mmHg 66%
    20:00 +16°C° 0 mm 2 mps 628 mmHg 76%
    21:00 +14°C° 0 mm 1 mps 628 mmHg 86%
    22:00 +13°C° 0 mm 1 mps 628 mmHg 87%
    23:00 +13°C° 0 mm 1 mps 628 mmHg 88%

    Day after tomorrow, 23 July, Sunday

    Time Temperature Precipitation Wind Pressure Humidity
    00:00 +13°C° 0 mm 1 mps 628 mmHg 89%
    01:00 +12°C° 0 mm 1 mps 628 mmHg 89%
    02:00 +12°C° 0 mm 1 mps 628 mmHg 90%
    03:00 +12°C° 0 mm 1 mps 627 mmHg 90%
    04:00 +12°C° 0 mm 1 mps 628 mmHg 88%
    05:00 +13°C° 0 mm 1 mps 628 mmHg 87%
    06:00 +13°C° 0 mm 1 mps 629 mmHg 85%
    07:00 +15°C° 0 mm 1 mps 629 mmHg 78%
    08:00 +17°C° 0 mm 2 mps 630 mmHg 71%
    09:00 +18°C° 0 mm 2 mps 631 mmHg 63%
    10:00 +19°C° 0 mm 3 mps 631 mmHg 58%
    11:00 +21°C° 0 mm 3 mps 631 mmHg 53%
    12:00 +22°C° 0 mm 4 mps 632 mmHg 47%
    13:00 +22°C° 0 mm 4 mps 631 mmHg 47%
    14:00 +22°C° 0 mm 4 mps 631 mmHg 47%
    15:00 +22°C° 0 mm 4 mps 631 mmHg 48%
    16:00 +20°C° 0.9 mm 3 mps 630 mmHg 58%
    17:00 +18°C° 0.9 mm 2 mps 629 mmHg 68%
    18:00 +17°C° 0.9 mm 2 mps 629 mmHg 78%
    19:00 +16°C° 1.4 mm 1 mps 629 mmHg 83%
    20:00 +14°C° 1.4 mm 1 mps 629 mmHg 88%
    21:00 +13°C° 1.4 mm 1 mps 629 mmHg 94%
    22:00 +13°C° 0.1 mm 1 mps 628 mmHg 94%
    23:00 +12°C° 0.1 mm 1 mps 628 mmHg 95%

    24 July, Monday

    Time Temperature Precipitation Wind Pressure Humidity
    00:00 +12°C° 0.1 mm 1 mps 628 mmHg 95%
    01:00 +12°C° 0 mm 1 mps 627 mmHg 95%
    02:00 +11°C° 0 mm 1 mps 627 mmHg 96%
    03:00 +11°C° 0 mm 1 mps 627 mmHg 96%
    04:00 +11°C° 0 mm 1 mps 627 mmHg 94%
    05:00 +10°C° 0 mm 2 mps 627 mmHg 92%
    06:00 +10°C° 0 mm 2 mps 627 mmHg 90%
    07:00 +13°C° 0 mm 2 mps 628 mmHg 79%
    08:00 +15°C° 0 mm 2 mps 628 mmHg 68%
    09:00 +17°C° 0 mm 3 mps 629 mmHg 58%
    10:00 +18°C° 0 mm 3 mps 629 mmHg 54%
    11:00 +19°C° 0 mm 3 mps 630 mmHg 50%
    12:00 +20°C° 0 mm 3 mps 630 mmHg 46%
    13:00 +20°C° 0 mm 3 mps 630 mmHg 46%
    14:00 +20°C° 0 mm 3 mps 630 mmHg 46%
    15:00 +20°C° 0 mm 3 mps 629 mmHg 46%
    16:00 +19°C° 0 mm 3 mps 629 mmHg 52%
    17:00 +17°C° 0 mm 3 mps 629 mmHg 57%
    18:00 +16°C° 0 mm 3 mps 628 mmHg 63%
    19:00 +14°C° 0 mm 3 mps 628 mmHg 69%
    20:00 +12°C° 0 mm 3 mps 627 mmHg 75%
    21:00 +10°C° 0 mm 3 mps 627 mmHg 82%
    22:00 +9°C° 0 mm 3 mps 627 mmHg 81%
    23:00 +9°C° 0 mm 2 mps 627 mmHg 80%

    25 July, Tuesday

    Time Temperature Precipitation Wind Pressure Humidity
    00:00 +8°C° 0 mm 2 mps 626 mmHg 80%
    01:00 +8°C° 0 mm 2 mps 626 mmHg 77%
    02:00 +7°C° 0 mm 2 mps 625 mmHg 74%
    03:00 +7°C° 0 mm 2 mps 625 mmHg 71%
    04:00 +7°C° 0 mm 2 mps 625 mmHg 70%
    05:00 +8°C° 0 mm 3 mps 626 mmHg 69%
    06:00 +8°C° 0 mm 3 mps 626 mmHg 68%
    07:00 +10°C° 0 mm 3 mps 627 mmHg 61%
    08:00 +13°C° 0 mm 3 mps 627 mmHg 53%
    09:00 +16°C° 0 mm 3 mps 628 mmHg 46%
    10:00 +17°C° 0 mm 3 mps 628 mmHg 44%
    11:00 +18°C° 0 mm 3 mps 629 mmHg 41%
    12:00 +19°C° 0 mm 3 mps 629 mmHg 39%
    13:00 +19°C° 0 mm 4 mps 628 mmHg 40%
    14:00 +19°C° 0 mm 4 mps 628 mmHg 41%
    15:00 +19°C° 0 mm 4 mps 628 mmHg 41%
    16:00 +18°C° 0 mm 4 mps 628 mmHg 47%
    17:00 +17°C° 0 mm 3 mps 627 mmHg 53%
    18:00 +16°C° 0 mm 3 mps 627 mmHg 59%
    19:00 +13°C° 0.1 mm 3 mps 626 mmHg 68%
    20:00 +12°C° 0.1 mm 2 mps 626 mmHg 77%
    21:00 +9°C° 0.1 mm 2 mps 625 mmHg 86%
    22:00 +9°C° 0 mm 2 mps 625 mmHg 86%
    23:00 +8°C° 0 mm 2 mps 625 mmHg 86%

    26 July, Wednesday

    Time Temperature Precipitation Wind Pressure Humidity
    00:00 +8°C° 0 mm 2 mps 625 mmHg 85%
    01:00 +8°C° 0 mm 2 mps 625 mmHg 86%
    02:00 +8°C° 0 mm 2 mps 625 mmHg 86%
    03:00 +8°C° 0 mm 2 mps 625 mmHg 87%
    04:00 +8°C° 0 mm 2 mps 625 mmHg 85%
    05:00 +9°C° 0 mm 2 mps 625 mmHg 82%
    06:00 +9°C° 0 mm 2 mps 625 mmHg 79%
    07:00 +13°C° 0 mm 1 mps 626 mmHg 69%
    08:00 +15°C° 0 mm 1 mps 627 mmHg 58%
    09:00 +19°C° 0 mm 1 mps 628 mmHg 47%
    10:00 +20°C° 0 mm 1 mps 629 mmHg 44%
    11:00 +20°C° 0 mm 2 mps 629 mmHg 41%
    12:00 +23°C° 0 mm 2 mps 629 mmHg 38%
    13:00 +23°C° 0 mm 2 mps 629 mmHg 39%
    14:00 +23°C° 0 mm 2 mps 629 mmHg 41%
    15:00 +23°C° 0 mm 2 mps 628 mmHg 42%
    16:00 +21°C° 0 mm 2 mps 628 mmHg 47%
    17:00 +20°C° 0 mm 2 mps 628 mmHg 52%
    18:00 +20°C° 0 mm 1 mps 627 mmHg 57%
    19:00 +18°C° 0 mm 1 mps 627 mmHg 65%
    20:00 +15°C° 0 mm 1 mps 627 mmHg 72%
    21:00 +13°C° 0 mm 1 mps 626 mmHg 80%
    22:00 +13°C° 0 mm 1 mps 626 mmHg 81%
    23:00 +13°C° 0 mm 1 mps 626 mmHg 82%
    Show more